QPF
0.00 0.00 0.01 0.01 0.02 0.01 0.02 0.02 0.04 0.04 0.03 0.02 0.02 0.02 0.02 0.01 0.01 0.01 0.00 0.01 0.01 0.01 0.02 0.03 0.05 0.05 0.03 0.02 0.01 0.02 0.01 0.01 0.02 0.01 0.01 0.01 0.01 0.01 0.01 0.01 0.01 0.03 0.02
0.00 0.00 0.01 0.01 0.01 0.01 0.01 0.01 0.03 0.03 0.02 0.02 0.02 0.02 0.01 0.01 0.01 0.01 0.01 0.01 0.01 0.02 0.03 0.04 0.04 0.05 0.04 0.04 0.03 0.04 0.04 0.03 0.03 0.02 0.01 0.01 0.01 0.01 0.01 0.01 0.01 0.02 0.02
0.00 0.00 0.00 0.01 0.01 0.01 0.00 0.01 0.01 0.02 0.02 0.02 0.02 0.02 0.02 0.02 0.02 0.02 0.02 0.01 0.01 0.01 0.03 0.04 0.04 0.05 0.05 0.05 0.05 0.05 0.05 0.06 0.04 0.02 0.02 0.03 0.02 0.03 0.04 0.03 0.03 0.01 0.01
0.00 0.00 0.00 0.00 0.00 0.00 0.01 0.01 0.01 0.02 0.03 0.03 0.03 0.02 0.02 0.03 0.03 0.03 0.02 0.01 0.01 0.01 0.02 0.03 0.04 0.04 0.05 0.05 0.05 0.04 0.06 0.08 0.05 0.02 0.01 0.02 0.02 0.03 0.05 0.06 0.06 0.03 0.01
0.00 0.00 0.00 0.00 0.00 0.00 0.01 0.01 0.01 0.01 0.02 0.03 0.03 0.02 0.02 0.02 0.02 0.02 0.01 0.01 0.01 0.01 0.02 0.03 0.03 0.05 0.04 0.04 0.04 0.04 0.06 0.09 0.06 0.03 0.02 0.03 0.06 0.03 0.03 0.06 0.07 0.06 0.04
0.00 0.00 0.00 0.00 0.00 0.00 0.00 0.00 0.01 0.01 0.01 0.02 0.02 0.01 0.01 0.01 0.00 0.01 0.01 0.01 0.01 0.01 0.01 0.02 0.03 0.04 0.03 0.03 0.03 0.04 0.07 0.08 0.04 0.03 0.02 0.03 0.07 0.06 0.05 0.07 0.07 0.08 0.07
0.00 0.00 0.00 0.00 0.00 0.00 0.00 0.00 0.01 0.01 0.01 0.01 0.01 0.01 0.01 0.00 0.00 0.01 0.01 0.01 0.01 0.00 0.00 0.01 0.02 0.04 0.04 0.03 0.03 0.04 0.07 0.06 0.04 0.02 0.01 0.01 0.04 0.06 0.05 0.07 0.08 0.09 0.09
0.00 0.00 0.00 0.00 0.00 0.00 0.00 0.00 0.01 0.01 0.01 0.01 0.01 0.01 0.01 0.00 0.00 0.00 0.01 0.01 0.01 0.00 0.00 0.00 0.01 0.02 0.03 0.03 0.02 0.04 0.07 0.05 0.01 0.01 0.00 0.01 0.03 0.04 0.04 0.05 0.07 0.09 0.10
0.00 0.00 0.00 0.01 0.00 0.00 0.00 0.01 0.02 0.02 0.01 0.01 0.01 0.01 0.02 0.01 0.01 0.01 0.01 0.00 0.00 0.00 0.00 0.00 0.01 0.01 0.01 0.01 0.02 0.04 0.07 0.04 0.02 0.01 0.00 0.01 0.03 0.02 0.02 0.02 0.04 0.06 0.08
0.00 0.00 0.00 0.00 0.00 0.01 0.01 0.02 0.04 0.05 0.04 0.04 0.03 0.02 0.02 0.01 0.01 0.01 0.01 0.01 0.00 0.00 0.00 0.00 0.00 0.00 0.00 0.00 0.01 0.03 0.05 0.03 0.05 0.02 0.00 0.01 0.02 0.01 0.00 0.01 0.01 0.02 0.03
0.01 0.00 0.00 0.00 0.00 0.00 0.01 0.02 0.06 0.11 0.10 0.07 0.05 0.03 0.01 0.01 0.02 0.02 0.02 0.01 0.00 0.00 0.00 0.00 0.00 0.00 0.00 0.00 0.01 0.01 0.02 0.03 0.04 0.02 0.01 0.00 0.01 0.00 0.00 0.00 0.00 0.00 0.01
0.06 0.02 0.01 0.01 0.01 0.01 0.01 0.01 0.06 0.11 0.14 0.09 0.10 0.08 0.04 0.03 0.02 0.01 0.01 0.01 0.00 0.00 0.00 0.00 0.00 0.00 0.00 0.00 0.00 0.00 0.01 0.02 0.01 0.01 0.00 0.00 0.00 0.00 0.00 0.00 0.00 0.00 0.00
0.12 0.08 0.04 0.03 0.02 0.02 0.02 0.03 0.05 0.09 0.12 0.11 0.10 0.10 0.09 0.07 0.03 0.01 0.01 0.01 0.00 0.00 0.00 0.00 0.00 0.00 0.00 0.00 0.00 0.00 0.00 0.00 0.00 0.00 0.00 0.00 0.00 0.00 0.00 0.00 0.00 0.00 0.00
0.19 0.19 0.14 0.07 0.05 0.06 0.06 0.05 0.06 0.07 0.07 0.08 0.09 0.09 0.13 0.11 0.06 0.02 0.01 0.00 0.00 0.00 0.00 0.00 0.00 0.00 0.00 0.00 0.00 0.00 0.00 0.00 0.00 0.00 0.00 0.00 0.00 0.00 0.00 0.00 0.00 0.00 0.00
0.26 0.30 0.26 0.17 0.14 0.17 0.15 0.10 0.07 0.07 0.07 0.08 0.09 0.08 0.09 0.09 0.09 0.06 0.01 0.01 0.00 0.00 0.00 0.00 0.00 0.00 0.00 0.00 0.00 0.00 0.00 0.00 0.00 0.00 0.00 0.00 0.00 0.00 0.00 0.00 0.00 0.00 0.00
0.15 0.19 0.21 0.17 0.19 0.24 0.22 0.15 0.13 0.12 0.12 0.14 0.11 0.08 0.08 0.07 0.07 0.08 0.03 0.01 0.00 0.00 0.00 0.00 0.00 0.00 0.00 0.00 0.00 0.00 0.00 0.00 0.00 0.00 0.00 0.00 0.00 0.00 0.00 0.00 0.00 0.01 0.01
0.08 0.09 0.10 0.12 0.16 0.23 0.28 0.27 0.22 0.20 0.19 0.17 0.14 0.13 0.11 0.09 0.07 0.08 0.05 0.02 0.01 0.00 0.00 0.00 0.00 0.00 0.00 0.00 0.00 0.00 0.00 0.00 0.00 0.00 0.00 0.00 0.00 0.00 0.00 0.00 0.00 0.00 0.01
0.04 0.04 0.05 0.06 0.10 0.14 0.18 0.23 0.27 0.31 0.28 0.22 0.16 0.13 0.12 0.10 0.10 0.11 0.07 0.04 0.03 0.01 0.01 0.01 0.00 0.00 0.00 0.00 0.00 0.00 0.00 0.00 0.00 0.00 0.00 0.00 0.00 0.00 0.00 0.00 0.00 0.00 0.01
0.01 0.01 0.02 0.03 0.04 0.05 0.08 0.09 0.13 0.20 0.24 0.25 0.23 0.15 0.12 0.10 0.12 0.13 0.10 0.09 0.09 0.07 0.05 0.03 0.01 0.00 0.00 0.00 0.00 0.00 0.00 0.00 0.00 0.00 0.00 0.00 0.00 0.00 0.00 0.00 0.00 0.00 0.00
0.00 0.00 0.00 0.01 0.01 0.01 0.02 0.03 0.06 0.08 0.12 0.18 0.18 0.15 0.14 0.13 0.12 0.13 0.12 0.15 0.17 0.13 0.11 0.09 0.07 0.04 0.01 0.00 0.00 0.00 0.00 0.00 0.00 0.00 0.00 0.00 0.00 0.00 0.00 0.00 0.00 0.00 0.00
0.00 0.00 0.00 0.00 0.00 0.00 0.00 0.01 0.02 0.04 0.07 0.11 0.15 0.16 0.17 0.17 0.15 0.15 0.14 0.20 0.23 0.17 0.16 0.17 0.14 0.10 0.05 0.01 0.01 0.00 0.00 0.00 0.00 0.00 0.00 0.00 0.00 0.00 0.00 0.00 0.00 0.00 0.00
0.00 0.00 0.00 0.00 0.00 0.00 0.00 0.00 0.01 0.01 0.02 0.04 0.06 0.10 0.13 0.17 0.18 0.14 0.14 0.17 0.21 0.20 0.21 0.21 0.16 0.15 0.10 0.04 0.03 0.05 0.05 0.03 0.01 0.00 0.00 0.00 0.00 0.00 0.00 0.00 0.00 0.00 0.00
0.00 0.00 0.00 0.00 0.00 0.00 0.00 0.00 0.00 0.01 0.01 0.02 0.04 0.05 0.10 0.15 0.21 0.21 0.19 0.20 0.22 0.21 0.20 0.22 0.20 0.20 0.17 0.10 0.05 0.06 0.07 0.06 0.06 0.02 0.00 0.00 0.00 0.00 0.00 0.00 0.00 0.00 0.00
0.00 0.00 0.00 0.01 0.01 0.00 0.01 0.01 0.01 0.01 0.01 0.01 0.02 0.03 0.06 0.09 0.12 0.15 0.20 0.22 0.21 0.19 0.18 0.20 0.20 0.21 0.23 0.19 0.15 0.13 0.10 0.07 0.08 0.07 0.03 0.00 0.00 0.00 0.00 0.00 0.00 0.00 0.00
0.02 0.02 0.02 0.02 0.02 0.02 0.02 0.02 0.02 0.02 0.02 0.01 0.02 0.02 0.04 0.05 0.06 0.09 0.13 0.15 0.14 0.14 0.14 0.18 0.18 0.16 0.16 0.17 0.18 0.18 0.19 0.14 0.10 0.09 0.08 0.04 0.01 0.00 0.00 0.00 0.00 0.00 0.00
0.05 0.04 0.05 0.06 0.06 0.06 0.06 0.04 0.03 0.03 0.02 0.02 0.02 0.03 0.04 0.05 0.05 0.06 0.07 0.10 0.11 0.11 0.12 0.14 0.14 0.13 0.11 0.14 0.16 0.14 0.13 0.13 0.12 0.11 0.11 0.08 0.05 0.01 0.00 0.00 0.00 0.00 0.00
MSLP
1014.35 1014.35 1014.47 1014.70 1014.98 1015.27 1015.50 1015.67 1015.75 1015.77 1015.77 1015.79 1015.85 1015.98 1016.17 1016.37 1016.57 1016.72 1016.81 1016.83 1016.79 1016.72 1016.65 1016.60 1016.59 1016.59 1016.61 1016.62 1016.61 1016.57 1016.50 1016.41 1016.33 1016.25 1016.20 1016.17 1016.15 1016.13 1016.11 1016.08 1016.04 1015.99 1015.95
1014.33 1014.36 1014.51 1014.77 1015.08 1015.38 1015.64 1015.82 1015.91 1015.93 1015.93 1015.95 1016.01 1016.14 1016.31 1016.51 1016.70 1016.84 1016.91 1016.92 1016.87 1016.80 1016.74 1016.69 1016.68 1016.69 1016.71 1016.71 1016.69 1016.64 1016.56 1016.48 1016.40 1016.35 1016.34 1016.35 1016.38 1016.40 1016.41 1016.39 1016.35 1016.28 1016.21
1014.33 1014.40 1014.58 1014.86 1015.20 1015.52 1015.80 1016.00 1016.11 1016.14 1016.14 1016.15 1016.21 1016.32 1016.47 1016.64 1016.80 1016.92 1016.98 1016.97 1016.93 1016.87 1016.81 1016.78 1016.78 1016.80 1016.81 1016.81 1016.77 1016.70 1016.61 1016.52 1016.45 1016.43 1016.45 1016.51 1016.58 1016.65 1016.69 1016.69 1016.64 1016.57 1016.48
1014.33 1014.44 1014.66 1014.97 1015.33 1015.69 1015.99 1016.21 1016.34 1016.38 1016.39 1016.40 1016.44 1016.52 1016.65 1016.79 1016.92 1017.01 1017.05 1017.04 1017.00 1016.95 1016.91 1016.90 1016.92 1016.95 1016.96 1016.94 1016.88 1016.79 1016.68 1016.57 1016.51 1016.50 1016.54 1016.64 1016.75 1016.86 1016.93 1016.95 1016.92 1016.84 1016.75
1014.32 1014.46 1014.71 1015.05 1015.45 1015.84 1016.17 1016.42 1016.56 1016.63 1016.64 1016.64 1016.67 1016.73 1016.83 1016.94 1017.04 1017.11 1017.14 1017.13 1017.10 1017.08 1017.07 1017.08 1017.11 1017.15 1017.16 1017.12 1017.04 1016.92 1016.78 1016.66 1016.59 1016.58 1016.64 1016.76 1016.90 1017.03 1017.13 1017.17 1017.16 1017.09 1017.00
1014.29 1014.45 1014.72 1015.09 1015.51 1015.93 1016.29 1016.57 1016.74 1016.82 1016.84 1016.84 1016.86 1016.91 1016.99 1017.08 1017.17 1017.23 1017.26 1017.26 1017.25 1017.25 1017.27 1017.31 1017.36 1017.39 1017.39 1017.34 1017.23 1017.08 1016.92 1016.78 1016.69 1016.68 1016.75 1016.87 1017.02 1017.17 1017.29 1017.35 1017.35 1017.31 1017.23
1014.25 1014.42 1014.69 1015.07 1015.50 1015.94 1016.32 1016.60 1016.79 1016.89 1016.93 1016.94 1016.96 1017.01 1017.08 1017.18 1017.26 1017.33 1017.38 1017.40 1017.42 1017.45 1017.49 1017.55 1017.60 1017.64 1017.62 1017.56 1017.43 1017.26 1017.08 1016.92 1016.82 1016.80 1016.86 1016.98 1017.14 1017.30 1017.42 1017.49 1017.51 1017.48 1017.43
1014.25 1014.38 1014.63 1014.99 1015.41 1015.83 1016.21 1016.50 1016.69 1016.80 1016.85 1016.88 1016.92 1016.98 1017.07 1017.18 1017.28 1017.38 1017.45 1017.51 1017.55 1017.61 1017.67 1017.74 1017.80 1017.83 1017.80 1017.72 1017.58 1017.40 1017.20 1017.04 1016.93 1016.91 1016.97 1017.09 1017.25 1017.40 1017.53 1017.61 1017.63 1017.62 1017.58
1014.32 1014.40 1014.60 1014.90 1015.26 1015.64 1015.98 1016.24 1016.43 1016.53 1016.60 1016.65 1016.71 1016.80 1016.92 1017.05 1017.19 1017.31 1017.42 1017.50 1017.58 1017.66 1017.74 1017.81 1017.87 1017.89 1017.86 1017.77 1017.63 1017.45 1017.26 1017.11 1017.01 1017.00 1017.06 1017.19 1017.35 1017.50 1017.63 1017.71 1017.74 1017.74 1017.71
1014.53 1014.52 1014.64 1014.85 1015.12 1015.41 1015.68 1015.89 1016.04 1016.13 1016.20 1016.26 1016.35 1016.47 1016.62 1016.79 1016.96 1017.11 1017.24 1017.36 1017.46 1017.55 1017.64 1017.72 1017.78 1017.80 1017.77 1017.68 1017.54 1017.38 1017.22 1017.09 1017.02 1017.04 1017.12 1017.27 1017.44 1017.60 1017.74 1017.82 1017.85 1017.85 1017.82
1014.89 1014.79 1014.80 1014.89 1015.04 1015.22 1015.38 1015.51 1015.60 1015.66 1015.72 1015.80 1015.91 1016.05 1016.22 1016.41 1016.60 1016.78 1016.93 1017.06 1017.18 1017.28 1017.37 1017.45 1017.51 1017.53 1017.51 1017.43 1017.32 1017.18 1017.06 1016.97 1016.95 1017.01 1017.13 1017.31 1017.51 1017.70 1017.85 1017.94 1017.98 1017.97 1017.94
1015.40 1015.21 1015.11 1015.07 1015.08 1015.11 1015.15 1015.17 1015.20 1015.22 1015.26 1015.34 1015.45 1015.61 1015.79 1015.99 1016.18 1016.36 1016.51 1016.64 1016.76 1016.86 1016.96 1017.04 1017.10 1017.13 1017.12 1017.06 1016.98 1016.88 1016.80 1016.76 1016.80 1016.90 1017.08 1017.31 1017.55 1017.77 1017.96 1018.07 1018.12 1018.12 1018.07
1016.02 1015.75 1015.54 1015.37 1015.23 1015.12 1015.03 1014.96 1014.90 1014.88 1014.90 1014.96 1015.08 1015.23 1015.40 1015.58 1015.75 1015.91 1016.04 1016.16 1016.27 1016.37 1016.47 1016.56 1016.62 1016.66 1016.66 1016.63 1016.57 1016.51 1016.48 1016.49 1016.57 1016.74 1016.97 1017.24 1017.54 1017.81 1018.04 1018.19 1018.27 1018.27 1018.22
1016.66 1016.34 1016.04 1015.76 1015.50 1015.26 1015.05 1014.88 1014.76 1014.69 1014.69 1014.74 1014.84 1014.97 1015.12 1015.26 1015.39 1015.51 1015.61 1015.70 1015.79 1015.89 1015.99 1016.08 1016.16 1016.21 1016.22 1016.21 1016.18 1016.15 1016.14 1016.19 1016.32 1016.52 1016.80 1017.12 1017.46 1017.79 1018.06 1018.26 1018.38 1018.41 1018.37
1017.24 1016.89 1016.53 1016.16 1015.80 1015.46 1015.16 1014.93 1014.76 1014.66 1014.64 1014.68 1014.76 1014.86 1014.97 1015.06 1015.14 1015.20 1015.26 1015.32 1015.40 1015.48 1015.59 1015.69 1015.78 1015.85 1015.88 1015.88 1015.86 1015.84 1015.85 1015.92 1016.06 1016.28 1016.58 1016.94 1017.31 1017.68 1018.00 1018.25 1018.41 1018.48 1018.48
1017.66 1017.31 1016.91 1016.49 1016.06 1015.66 1015.31 1015.03 1014.84 1014.74 1014.72 1014.75 1014.81 1014.88 1014.94 1014.98 1015.00 1015.01 1015.02 1015.06 1015.12 1015.22 1015.33 1015.45 1015.56 1015.64 1015.69 1015.69 1015.68 1015.65 1015.66 1015.71 1015.84 1016.05 1016.35 1016.70 1017.08 1017.47 1017.82 1018.11 1018.32 1018.45 1018.49
1017.91 1017.55 1017.13 1016.68 1016.22 1015.78 1015.41 1015.12 1014.93 1014.84 1014.82 1014.85 1014.90 1014.94 1014.96 1014.95 1014.92 1014.89 1014.87 1014.90 1014.96 1015.07 1015.21 1015.35 1015.49 1015.59 1015.64 1015.65 1015.63 1015.59 1015.57 1015.60 1015.69 1015.86 1016.11 1016.43 1016.79 1017.17 1017.53 1017.84 1018.09 1018.27 1018.38
1017.98 1017.61 1017.18 1016.71 1016.23 1015.78 1015.40 1015.12 1014.95 1014.87 1014.87 1014.90 1014.93 1014.95 1014.93 1014.89 1014.83 1014.77 1014.75 1014.78 1014.86 1015.00 1015.17 1015.36 1015.52 1015.65 1015.72 1015.73 1015.70 1015.65 1015.60 1015.58 1015.62 1015.73 1015.92 1016.17 1016.47 1016.80 1017.13 1017.45 1017.72 1017.95 1018.12
1017.93 1017.54 1017.08 1016.59 1016.09 1015.64 1015.27 1015.00 1014.85 1014.78 1014.78 1014.81 1014.84 1014.83 1014.79 1014.72 1014.64 1014.58 1014.57 1014.63 1014.75 1014.93 1015.15 1015.38 1015.59 1015.75 1015.85 1015.88 1015.85 1015.79 1015.71 1015.66 1015.64 1015.68 1015.79 1015.95 1016.17 1016.42 1016.69 1016.97 1017.24 1017.50 1017.73
1017.85 1017.41 1016.91 1016.39 1015.87 1015.41 1015.04 1014.77 1014.62 1014.55 1014.55 1014.56 1014.57 1014.54 1014.48 1014.40 1014.32 1014.27 1014.29 1014.38 1014.56 1014.79 1015.07 1015.36 1015.61 1015.82 1015.95 1016.01 1016.00 1015.95 1015.87 1015.79 1015.74 1015.72 1015.75 1015.82 1015.93 1016.08 1016.27 1016.48 1016.72 1016.98 1017.24
1017.80 1017.30 1016.75 1016.18 1015.63 1015.15 1014.76 1014.48 1014.31 1014.22 1014.19 1014.18 1014.15 1014.10 1014.02 1013.93 1013.85 1013.83 1013.88 1014.01 1014.24 1014.53 1014.87 1015.21 1015.52 1015.77 1015.96 1016.06 1016.10 1016.08 1016.03 1015.96 1015.90 1015.84 1015.81 1015.79 1015.81 1015.85 1015.93 1016.06 1016.23 1016.46 1016.73
1017.85 1017.28 1016.67 1016.05 1015.46 1014.94 1014.52 1014.20 1014.00 1013.87 1013.79 1013.73 1013.66 1013.57 1013.46 1013.35 1013.28 1013.27 1013.35 1013.53 1013.80 1014.14 1014.52 1014.91 1015.27 1015.58 1015.82 1015.99 1016.09 1016.13 1016.14 1016.12 1016.08 1016.03 1015.96 1015.89 1015.82 1015.76 1015.73 1015.76 1015.85 1016.02 1016.27
1018.01 1017.38 1016.71 1016.05 1015.41 1014.85 1014.39 1014.03 1013.77 1013.58 1013.44 1013.32 1013.19 1013.05 1012.91 1012.78 1012.70 1012.70 1012.79 1012.99 1013.28 1013.65 1014.06 1014.48 1014.88 1015.24 1015.53 1015.77 1015.95 1016.08 1016.18 1016.23 1016.25 1016.24 1016.18 1016.08 1015.96 1015.82 1015.70 1015.63 1015.63 1015.72 1015.92
1018.27 1017.59 1016.89 1016.18 1015.52 1014.92 1014.42 1014.01 1013.70 1013.45 1013.24 1013.05 1012.86 1012.66 1012.47 1012.31 1012.21 1012.19 1012.28 1012.48 1012.77 1013.14 1013.55 1013.98 1014.40 1014.78 1015.12 1015.43 1015.69 1015.92 1016.11 1016.27 1016.38 1016.43 1016.42 1016.34 1016.20 1016.02 1015.84 1015.68 1015.58 1015.59 1015.71
1018.56 1017.87 1017.15 1016.44 1015.76 1015.14 1014.61 1014.17 1013.81 1013.51 1013.24 1012.98 1012.73 1012.48 1012.24 1012.04 1011.90 1011.85 1011.91 1012.08 1012.34 1012.68 1013.06 1013.47 1013.88 1014.28 1014.65 1015.00 1015.34 1015.65 1015.95 1016.21 1016.42 1016.57 1016.63 1016.60 1016.48 1016.30 1016.08 1015.86 1015.69 1015.61 1015.65
1018.85 1018.17 1017.46 1016.76 1016.09 1015.48 1014.94 1014.48 1014.09 1013.75 1013.43 1013.13 1012.83 1012.53 1012.24 1012.00 1011.82 1011.73 1011.74 1011.85 1012.06 1012.34 1012.68 1013.04 1013.42 1013.80 1014.17 1014.55 1014.93 1015.32 1015.70 1016.06 1016.37 1016.61 1016.76 1016.81 1016.74 1016.58 1016.36 1016.11 1015.89 1015.74 1015.70
Thickness
5804 5802 5794 5791 5789 5787 5785 5784 5782 5780 5778 5776 5773 5771 5770 5768 5767 5766 5765 5765 5764 5764 5764 5764 5764 5763 5764 5764 5765 5766 5768 5770 5772 5774 5775 5777 5778 5778 5779 5780 5781 5782 5780
5809 5803 5794 5792 5790 5788 5786 5784 5782 5780 5778 5776 5774 5772 5770 5768 5767 5766 5765 5764 5763 5763 5763 5762 5762 5762 5762 5762 5763 5763 5764 5766 5768 5769 5772 5773 5774 5775 5776 5776 5778 5779 5777
5808 5802 5795 5792 5790 5787 5786 5784 5782 5780 5778 5777 5774 5772 5770 5768 5767 5765 5764 5763 5762 5762 5761 5761 5761 5760 5760 5760 5761 5761 5762 5763 5764 5766 5769 5773 5772 5771 5772 5773 5773 5773 5773
5806 5801 5797 5792 5789 5787 5785 5784 5782 5780 5778 5777 5775 5773 5771 5769 5767 5766 5764 5763 5762 5761 5761 5760 5760 5759 5759 5759 5759 5760 5760 5761 5762 5764 5770 5771 5771 5767 5768 5768 5769 5769 5770
5804 5800 5795 5791 5789 5787 5785 5783 5782 5780 5779 5777 5775 5773 5772 5770 5768 5766 5765 5764 5762 5761 5760 5760 5759 5758 5758 5758 5758 5759 5759 5760 5761 5764 5766 5766 5766 5764 5764 5764 5765 5766 5766
5802 5799 5793 5789 5787 5785 5784 5782 5781 5779 5778 5777 5775 5774 5772 5770 5769 5767 5766 5765 5763 5762 5761 5760 5759 5759 5758 5758 5758 5759 5759 5760 5762 5764 5764 5764 5764 5761 5761 5762 5762 5762 5763
5802 5798 5793 5787 5785 5784 5782 5781 5780 5779 5777 5776 5775 5773 5772 5771 5769 5768 5766 5765 5764 5763 5762 5761 5760 5760 5759 5759 5759 5759 5759 5760 5764 5763 5763 5763 5761 5760 5759 5760 5760 5760 5761
5801 5797 5793 5785 5783 5782 5781 5779 5779 5778 5776 5775 5774 5773 5772 5770 5769 5767 5766 5765 5764 5763 5763 5762 5761 5761 5760 5759 5759 5759 5759 5760 5763 5765 5764 5763 5759 5759 5758 5758 5759 5759 5759
5799 5796 5793 5790 5784 5780 5779 5778 5777 5776 5775 5774 5773 5772 5771 5769 5768 5767 5766 5765 5764 5764 5763 5763 5762 5762 5761 5761 5760 5760 5760 5761 5765 5765 5765 5763 5759 5758 5758 5758 5758 5758 5759
5797 5795 5794 5792 5789 5786 5782 5778 5777 5776 5775 5774 5773 5772 5770 5769 5768 5767 5766 5765 5764 5763 5763 5763 5763 5763 5762 5762 5761 5761 5761 5762 5765 5766 5767 5762 5759 5758 5758 5758 5758 5758 5758
5791 5793 5792 5791 5788 5785 5783 5781 5777 5775 5774 5773 5772 5771 5770 5772 5772 5769 5768 5765 5764 5763 5763 5763 5763 5763 5763 5763 5763 5762 5763 5766 5766 5767 5766 5761 5759 5758 5758 5758 5758 5758 5758
5785 5788 5790 5789 5787 5784 5782 5781 5779 5777 5775 5774 5775 5774 5773 5775 5774 5773 5768 5765 5764 5763 5763 5763 5763 5763 5764 5768 5766 5764 5768 5768 5769 5768 5766 5761 5759 5759 5759 5758 5758 5758 5757
5779 5781 5784 5785 5785 5784 5782 5780 5779 5777 5775 5774 5774 5774 5774 5774 5773 5772 5772 5768 5766 5765 5766 5764 5765 5769 5770 5771 5771 5771 5771 5772 5771 5770 5767 5762 5760 5759 5759 5758 5758 5757 5757
5767 5769 5773 5777 5779 5780 5779 5778 5776 5776 5775 5774 5773 5773 5772 5771 5772 5774 5773 5773 5771 5769 5768 5769 5769 5770 5771 5772 5771 5773 5772 5772 5772 5770 5766 5762 5760 5759 5759 5758 5758 5757 5757
5758 5760 5763 5766 5769 5771 5772 5772 5774 5774 5773 5773 5771 5771 5771 5770 5770 5772 5773 5771 5771 5771 5769 5768 5770 5771 5771 5773 5773 5773 5774 5772 5771 5769 5767 5761 5760 5759 5758 5758 5757 5757 5756
5749 5752 5755 5758 5760 5762 5764 5766 5768 5769 5768 5768 5768 5768 5769 5768 5768 5768 5770 5770 5770 5769 5769 5769 5770 5769 5769 5770 5771 5771 5771 5772 5770 5767 5767 5763 5759 5758 5757 5757 5756 5756 5755
5742 5744 5746 5749 5752 5754 5757 5758 5761 5762 5762 5763 5763 5764 5764 5765 5766 5766 5767 5769 5769 5768 5768 5768 5769 5768 5767 5767 5767 5769 5770 5769 5768 5767 5766 5764 5762 5758 5756 5755 5754 5754 5754
5733 5735 5737 5739 5742 5745 5748 5751 5754 5756 5757 5757 5757 5758 5759 5760 5761 5762 5762 5764 5765 5766 5765 5765 5765 5763 5764 5764 5766 5767 5767 5765 5764 5765 5764 5762 5761 5759 5756 5753 5752 5752 5752
5722 5725 5728 5730 5731 5735 5738 5742 5747 5750 5751 5751 5751 5752 5754 5755 5756 5757 5758 5759 5761 5761 5761 5761 5761 5760 5760 5760 5762 5762 5763 5764 5763 5761 5762 5761 5759 5756 5756 5751 5750 5749 5749
5712 5714 5717 5719 5721 5724 5728 5732 5737 5741 5744 5745 5747 5748 5749 5751 5752 5752 5752 5754 5755 5755 5754 5755 5754 5753 5754 5754 5756 5757 5759 5760 5759 5759 5758 5758 5758 5756 5754 5752 5750 5748 5746
5700 5702 5705 5708 5711 5713 5716 5719 5722 5727 5731 5736 5740 5743 5744 5746 5747 5748 5748 5749 5749 5749 5750 5750 5749 5746 5745 5749 5747 5747 5751 5753 5756 5755 5754 5754 5754 5753 5750 5749 5749 5748 5745
5688 5690 5694 5696 5698 5700 5703 5707 5710 5715 5721 5726 5731 5735 5739 5742 5743 5744 5745 5745 5745 5745 5745 5745 5743 5740 5740 5740 5738 5736 5734 5740 5745 5750 5750 5749 5750 5751 5749 5748 5747 5745 5744
5675 5677 5680 5682 5684 5687 5690 5694 5699 5705 5711 5716 5721 5727 5732 5736 5739 5741 5743 5743 5743 5742 5741 5741 5740 5736 5732 5733 5735 5732 5726 5726 5735 5743 5745 5745 5745 5747 5746 5746 5745 5744 5741
5663 5665 5667 5669 5671 5674 5677 5681 5685 5689 5696 5704 5710 5718 5724 5729 5733 5736 5738 5739 5739 5738 5738 5738 5737 5735 5732 5727 5727 5728 5729 5730 5724 5725 5733 5739 5741 5741 5741 5742 5741 5741 5740
5651 5652 5654 5657 5658 5661 5664 5668 5672 5678 5686 5694 5702 5708 5715 5721 5726 5730 5732 5734 5734 5734 5735 5735 5734 5732 5731 5727 5724 5722 5720 5720 5721 5718 5717 5724 5728 5732 5735 5736 5737 5736 5736
5643 5644 5646 5647 5649 5651 5653 5657 5662 5667 5675 5682 5690 5697 5704 5709 5715 5720 5724 5726 5728 5729 5730 5730 5730 5728 5727 5725 5723 5722 5719 5715 5714 5713 5711 5712 5714 5721 5726 5728 5730 5730 5729